Date String (YYYY-MM-DD hh:mm:ss) UTC,Instrument flags,Ambient pressure (hPa),Sample flow (lpm),Bypass flow (lpm),Sample temperature (°C),Ambient temperature (°C),ASC tube jacket temperature (°C),LED temperature (°C),Box temperature (°C),Sample RH (%),Span deviation,Mass concentration (μg/m³),Mass concentration (μg/m³),Mass concentration (μg/m³)
DateTimeUTC,F1_M11,P_M11,Q1_M11,Q2_M11,T1_M11,T2_M11,T3_M11,T4_M11,T5_M11,U1_M11,ZSPAN_M11,X0_M11,X2_M11,X1_M11
2023-01-17 22:00:00,,0813.5,5.01,0.00,22.7,21.0,00.0,31.5,24.5,15.9,0000.0,0009.50,0005.55,0005.24
2023-01-17 22:01:00,,0813.6,5.00,0.00,22.7,21.0,00.0,31.5,24.4,16.0,0000.0,0009.56,0005.56,0005.25
2023-01-17 22:02:00,,0813.5,5.00,0.00,22.7,21.0,00.0,31.5,24.4,16.0,0000.0,0009.34,0005.58,0005.25
2023-01-17 22:03:00,,0813.6,5.00,0.00,22.7,20.9,00.0,31.5,24.3,16.0,-000.3,0009.86,0005.60,0005.25
2023-01-17 22:04:00,,0813.6,5.01,0.00,22.6,20.8,00.0,31.5,24.3,16.0,-000.7,0009.89,0005.61,0005.24
2023-01-17 22:05:00,,0814.0,5.00,0.00,22.6,20.9,00.0,31.5,24.3,16.0,0000.0,0009.80,0005.63,0005.24
2023-01-17 22:06:00,,0814.2,5.02,0.00,22.6,20.9,00.0,31.4,24.3,16.0,0000.0,0010.16,0005.62,0005.23
2023-01-17 22:07:00,,0814.1,4.99,0.00,22.6,20.9,00.0,31.4,24.3,16.1,0000.0,0010.20,0005.61,0005.22
2023-01-17 22:08:00,,0814.2,5.00,0.00,22.6,20.9,00.0,31.4,24.3,16.1,0000.0,0010.14,0005.58,0005.20
2023-01-17 22:09:00,,0814.3,5.02,0.00,22.6,20.9,00.0,31.4,24.3,16.1,0000.0,0010.12,0005.59,0005.18
2023-01-17 22:10:00,,0814.2,4.98,0.00,22.6,20.9,00.0,31.4,24.3,16.1,0000.0,0010.29,0005.61,0005.17
2023-01-17 22:11:00,,0814.1,5.00,0.00,22.6,21.0,00.0,31.4,24.3,16.2,0000.0,0010.50,0005.62,0005.19
2023-01-17 22:12:00,,0814.2,5.02,0.00,22.6,20.9,00.0,31.4,24.3,16.2,0000.0,0010.49,0005.65,0005.20
2023-01-17 22:13:00,,0814.1,5.01,0.00,22.6,21.0,00.0,31.4,24.3,16.2,0000.0,0010.22,0005.63,0005.21
2023-01-17 22:14:00,,0813.8,5.01,0.00,22.6,21.0,00.0,31.4,24.4,16.2,0000.0,0009.93,0005.62,0005.22
2023-01-17 22:15:00,,0813.6,5.01,0.00,22.6,21.1,00.0,31.4,24.4,16.1,0000.0,0010.16,0005.64,0005.23
2023-01-17 22:16:00,,0813.6,5.00,0.00,22.6,21.1,00.0,31.3,24.4,16.1,0000.0,0010.09,0005.65,0005.24
2023-01-17 22:17:00,,0813.5,4.99,0.00,22.6,21.1,00.0,31.3,24.4,16.1,-001.0,0009.26,0005.66,0005.25
2023-01-17 22:18:00,,0813.6,5.00,0.00,22.6,21.2,00.0,31.3,24.4,16.1,-002.0,0009.20,0005.66,0005.26
2023-01-17 22:19:00,,0813.5,4.99,0.00,22.6,21.2,00.0,31.3,24.4,16.1,-001.8,0009.41,0005.67,0005.27
2023-01-17 22:20:00,,0813.6,5.00,0.00,22.6,21.2,00.0,31.3,24.4,16.1,-001.9,0009.56,0005.68,0005.27
2023-01-17 22:21:00,,0813.6,4.99,0.00,22.6,21.2,00.0,31.3,24.4,16.1,-001.7,0009.90,0005.68,0005.28
2023-01-17 22:22:00,,0813.5,5.01,0.00,22.6,21.3,00.0,31.3,24.4,16.1,-000.7,0010.30,0005.68,0005.29
2023-01-17 22:23:00,,0813.6,5.01,0.00,22.6,21.3,00.0,31.3,24.4,16.1,0000.0,0010.23,0005.66,0005.28
2023-01-17 22:24:00,,0813.5,4.99,0.00,22.6,21.3,00.0,31.4,24.4,16.0,-001.5,0010.32,0005.69,0005.28
2023-01-17 22:25:00,,0813.5,5.01,0.00,22.6,21.3,00.0,31.4,24.5,16.1,0000.0,0010.34,0005.74,0005.29
2023-01-17 22:26:00,,0813.5,4.99,0.00,22.6,21.3,00.0,31.4,24.5,16.1,0000.0,0010.09,0005.75,0005.28
2023-01-17 22:27:00,,0813.5,5.00,0.00,22.6,21.4,00.0,31.4,24.5,16.0,0000.0,0010.00,0005.71,0005.28
2023-01-17 22:28:00,,0813.5,5.00,0.00,22.6,21.4,00.0,31.4,24.5,16.0,0000.0,0010.01,0005.70,0005.26
2023-01-17 22:29:00,,0813.4,5.00,0.00,22.6,21.4,00.0,31.4,24.5,16.0,0000.0,0010.03,0005.69,0005.24
2023-01-17 22:30:00,,0813.4,5.00,0.00,22.6,21.4,00.0,31.4,24.5,16.0,0000.0,0009.96,0005.69,0005.22
2023-01-17 22:31:00,,0813.4,5.00,0.00,22.7,21.4,00.0,31.4,24.5,16.0,0000.0,0010.11,0005.68,0005.21
2023-01-17 22:32:00,,0813.5,4.99,0.00,22.7,21.4,00.0,31.4,24.5,16.0,0000.0,0010.35,0005.65,0005.19
2023-01-17 22:33:00,,0813.5,5.01,0.00,22.7,21.4,00.0,31.4,24.5,16.1,0000.0,0010.19,0005.64,0005.16
2023-01-17 22:34:00,,0813.6,5.01,0.00,22.7,21.4,00.0,31.4,24.5,16.1,0000.0,0010.43,0005.63,0005.14
2023-01-17 22:35:00,,0813.6,5.01,0.00,22.7,21.4,00.0,31.4,24.5,16.1,0000.0,0010.38,0005.58,0005.12
2023-01-17 22:36:00,,0813.6,5.01,0.00,22.7,21.4,00.0,31.4,24.5,16.1,0000.0,0010.08,0005.53,0005.11
2023-01-17 22:37:00,,0813.5,4.99,0.00,22.7,21.4,00.0,31.4,24.6,16.1,0000.6,0010.16,0005.54,0005.09
2023-01-17 22:38:00,,0813.5,5.00,0.00,22.7,21.4,00.0,31.4,24.6,16.1,0001.9,0010.82,0005.56,0005.08
2023-01-17 22:39:00,,0813.5,4.99,0.00,22.7,21.4,00.0,31.4,24.6,16.1,0001.8,0010.89,0005.56,0005.08
2023-01-17 22:40:00,,0813.5,5.02,0.00,22.7,21.4,00.0,31.4,24.6,16.1,0001.3,0011.01,0005.58,0005.09
2023-01-17 22:41:00,,0813.5,5.00,0.00,22.7,21.4,00.0,31.4,24.5,16.1,0001.0,0011.03,0005.57,0005.11
2023-01-17 22:42:00,,0813.4,5.01,0.00,22.7,21.4,00.0,31.4,24.6,16.1,0000.7,0010.88,0005.57,0005.11
2023-01-17 22:43:00,,0813.4,5.00,0.00,22.7,21.5,00.0,31.4,24.6,16.2,0000.9,0010.37,0005.59,0005.13
2023-01-17 22:44:00,,0813.4,5.00,0.00,22.7,21.5,00.0,31.5,24.6,16.1,0000.4,0010.20,0005.59,0005.14
2023-01-17 22:45:00,,0813.4,5.00,0.00,22.7,21.5,00.0,31.5,24.6,16.1,-000.3,0010.15,0005.61,0005.14
2023-01-17 22:46:00,,0813.5,5.00,0.00,22.7,21.4,00.0,31.4,24.6,16.1,-000.5,0010.25,0005.65,0005.15
